This is the latest recevied weather packets stored in our database for station/object NC4J. If no packets are shown the sender has not sent any weather packets the latest 10 day(s).
| Time | Temp. | Humidity | Pressure | Rain* | Wind** | Luminosity | Snow |
|---|---|---|---|---|---|---|---|
| 1777397257 | 15° C | 83% | 1021 hPa | 0 mm | - | 152 W/m² | - |
| 1777396954 | 15° C | 82% | 1020.9 hPa | 0 mm | - | 174 W/m² | - |
| 1777396651 | 15° C | 84% | 1021.1 hPa | 0 mm | - | 168 W/m² | - |
| 1777396348 | 15° C | 83% | 1021 hPa | 0 mm | - | 194 W/m² | - |
| 1777396045 | 15° C | 84% | 1021.2 hPa | 0 mm | - | 155 W/m² | - |
| 1777395739 | 15° C | 87% | 1021.2 hPa | 0 mm | - | 161 W/m² | - |
| 1777395435 | 14.44° C | 86% | 1021.3 hPa | 0 mm | - | 159 W/m² | - |
| 1777395133 | 14.44° C | 85% | 1021.4 hPa | 0 mm | - | 144 W/m² | - |
| 1777394830 | 14.44° C | 85% | 1021.3 hPa | 0 mm | - | 126 W/m² | - |
| 1777394526 | 14.44° C | 85% | 1021.3 hPa | 0 mm | - | 87 W/m² | - |
| 1777394223 | 14.44° C | 85% | 1021.5 hPa | 0 mm | - | 104 W/m² | - |
| 1777393918 | 14.44° C | 86% | 1021.6 hPa | 0 mm | - | 123 W/m² | - |
| 1777393618 | 13.89° C | 87% | 1021.5 hPa | 0 mm | - | 205 W/m² | - |
| 1777393313 | 13.89° C | 87% | 1021.5 hPa | 0 mm | - | 179 W/m² | - |
| 1777393010 | 13.89° C | 88% | 1021.8 hPa | 0 mm | - | 99 W/m² | - |
| 1777392705 | 13.89° C | 90% | 1021.6 hPa | 0 mm | - | 95 W/m² | - |
| 1777392402 | 13.33° C | 92% | 1021.8 hPa | 0 mm | - | 113 W/m² | - |
| 1777392098 | 13.33° C | 92% | 1021.7 hPa | 0 mm | - | 87 W/m² | - |
| 1777391792 | 13.33° C | 91% | 1022.3 hPa | 0 mm | - | 66 W/m² | - |
| 1777391489 | 12.78° C | 93% | 1022 hPa | 0 mm | - | 70 W/m² | - |
| 1777391185 | 12.78° C | 93% | 1022 hPa | 0 mm | - | 121 W/m² | - |
| 1777390881 | 12.78° C | 92% | 1022.5 hPa | 0 mm | - | 82 W/m² | - |
| 1777390578 | 12.78° C | 93% | 1022.7 hPa | 0 mm | - | 64 W/m² | - |
| 1777390275 | 12.78° C | 92% | 1022.6 hPa | 0 mm | - | 62 W/m² | - |
| 1777389971 | 12.78° C | 93% | 1023 hPa | 0 mm | - | 55 W/m² | - |
* Rain latest hour (hover to see other rain measurements)
** Current wind speed in m/s (hover to see current wind gust speed)